| time (UTC) | temp C | wind direction | speed KPH | gust KPH | rain 1hr cm | rain 24hr cm | rain mn cm | humidity % | barometer mb |
| 20260505021514 | 13 | 131 | 3.2 | 20.9 | 0.00 | 0.00 | 0.00 | 39 | 1013.5 |
| 20260505020014 | 13 | 89 | 6.4 | 16.1 | 0.00 | 0.00 | 0.00 | 39 | 1013.5 |
| 20260505014514 | 13 | 22 | 4.8 | 12.9 | 0.00 | 0.00 | 0.00 | 40 | 1013.4 |
| 20260505013008 | 13 | 8 | 8.0 | 25.7 | 0.00 | 0.00 | 0.00 | 40 | 1013.3 |
| 20260505011516 | 14 | 22 | 6.4 | 17.7 | 0.00 | 0.00 | 0.00 | 39 | 1013.5 |
| 20260505010017 | 15 | 325 | 4.8 | 14.5 | 0.00 | 0.00 | 0.00 | 38 | 1013.6 |
| 20260505004520 | 15 | 102 | 9.7 | 19.3 | 0.00 | 0.00 | 0.00 | 37 | 1013.3 |
| 20260505003022 | 15 | 106 | 8.0 | 27.4 | 0.00 | 0.00 | 0.00 | 38 | 1013.5 |
| 20260505001509 | 16 | 72 | 6.4 | 14.5 | 0.00 | 0.00 | 0.00 | 38 | 1013.5 |
| 20260505000005 | 15 | 79 | 9.7 | 19.3 | 0.00 | 0.00 | 0.00 | 39 | 1013.4 |
| 20260504234504 | 15 | 348 | 8.0 | 20.9 | 0.00 | 0.00 | 0.00 | 39 | 1013.4 |
| 20260504233006 | 16 | 98 | 6.4 | 22.5 | 0.00 | 0.00 | 0.00 | 39 | 1013.4 |
| 20260504231507 | 16 | 161 | 9.7 | 29.0 | 0.00 | 0.00 | 0.00 | 39 | 1013.4 |
| 20260504230012 | 16 | 103 | 8.0 | 22.5 | 0.00 | 0.00 | 0.00 | 38 | 1013.2 |
| 20260504224503 | 16 | 56 | 12.9 | 19.3 | 0.00 | 0.00 | 0.00 | 38 | 1013.1 |
| 20260504223003 | 16 | 47 | 8.0 | 27.4 | 0.00 | 0.00 | 0.00 | 39 | 1013.2 |
| 20260504221507 | 16 | 81 | 11.3 | 22.5 | 0.00 | 0.00 | 0.00 | 39 | 1013.2 |
| 20260504220009 | 16 | 97 | 4.8 | 12.9 | 0.00 | 0.00 | 0.00 | 39 | 1013.2 |
| 20260504214514 | 16 | 100 | 8.0 | 12.9 | 0.00 | 0.00 | 0.00 | 37 | 1013.3 |
| 20260504213020 | 16 | 332 | 1.6 | 17.7 | 0.00 | 0.00 | 0.00 | 35 | 1013.2 |
| 20260504211503 | 16 | 87 | 1.6 | 19.3 | 0.00 | 0.00 | 0.00 | 35 | 1013.2 |
| 20260504210005 | 17 | 113 | 9.7 | 19.3 | 0.00 | 0.00 | 0.00 | 36 | 1013.2 |
| 20260504204525 | 17 | 226 | 1.6 | 9.7 | 0.00 | 0.00 | 0.00 | 39 | 1013.2 |
| 20260504203023 | 16 | 75 | 1.6 | 16.1 | 0.00 | 0.00 | 0.00 | 36 | 1013.2 |
| 20260504201522 | 16 | 110 | 6.4 | 19.3 | 0.00 | 0.00 | 0.00 | 35 | 1013.4 |
| 20260504200005 | 17 | 96 | 9.7 | 16.1 | 0.00 | 0.00 | 0.00 | 37 | 1013.2 |
| 20260504194508 | 17 | 120 | 6.4 | 12.9 | 0.00 | 0.00 | 0.00 | 39 | 1013.2 |
| 20260504193017 | 17 | 119 | 3.2 | 6.4 | 0.00 | 0.00 | 0.00 | 36 | 1013.4 |
| 20260504191524 | 16 | 4 | 3.2 | 9.7 | 0.00 | 0.00 | 0.00 | 36 | 1013.5 |
| 20260504190021 | 16 | 119 | 8.0 | 20.9 | 0.00 | 0.00 | 0.00 | 39 | 1013.6 |
| 20260504184505 | 16 | 342 | 4.8 | 19.3 | 0.00 | 0.00 | 0.00 | 35 | 1013.7 |
| 20260504183012 | 16 | 91 | 6.4 | 14.5 | 0.00 | 0.00 | 0.00 | 39 | 1013.8 |
| 20260504181517 | 16 | 95 | 8.0 | 25.7 | 0.00 | 0.00 | 0.00 | 38 | 1013.8 |
| 20260504180021 | 16 | 101 | 14.5 | 22.5 | 0.00 | 0.00 | 0.00 | 38 | 1013.8 |
| 20260504174524 | 16 | 86 | 6.4 | 17.7 | 0.00 | 0.00 | 0.00 | 40 | 1013.9 |
| 20260504173008 | 16 | 155 | 6.4 | 14.5 | 0.00 | 0.00 | 0.00 | 40 | 1013.9 |
| 20260504171513 | 16 | 215 | 3.2 | 11.3 | 0.00 | 0.00 | 0.00 | 40 | 1013.9 |
| 20260504081524 | 10 | 281 | 4.8 | 9.7 | 0.00 | 0.00 | 0.00 | 65 | 1010.7 |
| 20260504050004 | 11 | 283 | 0.0 | 0.0 | 0.00 | 0.00 | 0.00 | 63 | 1009.1 |
| 20260504044509 | 11 | 286 | 0.0 | 3.2 | 0.00 | 0.00 | 0.00 | 65 | 1009.0 |
| 20260504043011 | 13 | 306 | 0.0 | 0.0 | 0.00 | 0.00 | 0.00 | 60 | 1008.9 |
| 20260504041515 | 14 | 20 | 0.0 | 1.6 | 0.00 | 0.00 | 0.00 | 56 | 1009.0 |
| 20260504040019 | 15 | 33 | 0.0 | 4.8 | 0.00 | 0.00 | 0.00 | 52 | 1009.1 |
| 20260504034504 | 16 | 13 | 1.6 | 3.2 | 0.00 | 0.00 | 0.00 | 53 | 1008.9 |
| 20260504033006 | 16 | 346 | 0.0 | 3.2 | 0.00 | 0.00 | 0.00 | 53 | 1008.7 |
| 20260504031510 | 16 | 4 | 1.6 | 3.2 | 0.00 | 0.00 | 0.00 | 57 | 1008.6 |
| 20260504030018 | 16 | 76 | 0.0 | 1.6 | 0.00 | 0.00 | 0.00 | 56 | 1008.6 |
| 20260504024520 | 17 | 78 | 0.0 | 1.6 | 0.00 | 0.00 | 0.00 | 48 | 1008.6 |
| 20260504023005 | 18 | 77 | 0.0 | 1.6 | 0.00 | 0.00 | 0.00 | 43 | 1008.6 |